Time,TemperatureF,DewpointF,PressureIn,WindDirection,WindDirectionDegrees,WindSpeedMPH,WindSpeedGustMPH,Humidity,HourlyPrecipIn,Conditions,Clouds,dailyrainin,SoftwareType,DateUTC
2013-02-28 00:01:00,28.0,25.0,-100.00,NNW,335,4.0,9.0,86,0.00,,,0.00,,2013-02-28 06:01:00,
2013-02-28 00:11:00,28.0,25.0,-100.00,NNW,330,4.0,7.0,86,0.00,,,0.00,,2013-02-28 06:11:00,
2013-02-28 00:22:00,28.0,25.0,-100.00,NNW,345,4.0,8.0,86,0.00,,,0.00,,2013-02-28 06:22:00,
2013-02-28 00:32:00,28.0,25.0,-100.00,NNW,335,4.0,7.0,86,0.00,,,0.00,,2013-02-28 06:32:00,
2013-02-28 00:42:00,29.0,25.0,-100.00,NNW,345,6.0,10.0,86,0.00,,,0.00,,2013-02-28 06:42:00,
2013-02-28 00:51:00,29.0,25.0,-100.00,NNW,330,7.0,11.0,86,0.00,,,0.00,,2013-02-28 06:51:00,
2013-02-28 01:01:00,29.0,25.0,-100.00,NNW,335,6.0,9.0,85,0.00,,,0.00,,2013-02-28 07:01:00,
2013-02-28 01:11:00,29.0,25.0,-100.00,NNW,335,6.0,12.0,85,0.00,,,0.00,,2013-02-28 07:11:00,
2013-02-28 01:21:00,29.0,25.0,-100.00,NNW,335,6.0,12.0,85,0.00,,,0.00,,2013-02-28 07:21:00,
2013-02-28 01:31:00,29.0,25.0,-100.00,NNW,340,5.0,12.0,83,0.00,,,0.00,,2013-02-28 07:31:00,
2013-02-28 01:41:00,30.0,25.0,-100.00,NNW,340,5.0,9.0,83,0.00,,,0.00,,2013-02-28 07:41:00,
2013-02-28 01:51:00,30.0,25.0,-100.00,NNW,345,4.0,9.0,82,0.00,,,0.00,,2013-02-28 07:51:00,
2013-02-28 02:01:00,30.0,25.0,-100.00,NNW,340,4.0,8.0,82,0.00,,,0.00,,2013-02-28 08:01:00,
2013-02-28 02:11:00,30.0,25.0,-100.00,NNW,340,4.0,7.0,82,0.00,,,0.00,,2013-02-28 08:11:00,
2013-02-28 02:22:00,30.0,25.0,-100.00,NNW,335,5.0,9.0,82,0.00,,,0.00,,2013-02-28 08:22:00,
2013-02-28 02:32:00,30.0,25.0,-100.00,NW,325,3.0,8.0,82,0.00,,,0.00,,2013-02-28 08:32:00,
2013-02-28 02:42:00,30.0,25.0,-100.00,NNW,330,4.0,9.0,82,0.00,,,0.00,,2013-02-28 08:42:00,
2013-02-28 02:52:00,30.0,25.0,-100.00,North,355,5.0,10.0,81,0.00,,,0.00,,2013-02-28 08:52:00,
2013-02-28 03:03:00,30.0,25.0,-100.00,NNW,335,4.0,11.0,81,0.00,,,0.00,,2013-02-28 09:03:00,
2013-02-28 03:11:00,30.0,25.0,-100.00,NNW,335,5.0,9.0,81,0.00,,,0.00,,2013-02-28 09:11:00,
2013-02-28 03:22:00,30.0,25.0,-100.00,NW,325,5.0,9.0,80,0.00,,,0.00,,2013-02-28 09:22:00,
2013-02-28 03:32:00,30.0,25.0,-100.00,NNW,340,5.0,10.0,80,0.00,,,0.00,,2013-02-28 09:32:00,
2013-02-28 03:42:00,30.0,25.0,-100.00,North,5,5.0,11.0,80,0.00,,,0.00,,2013-02-28 09:42:00,
2013-02-28 03:52:00,31.0,25.0,-100.00,North,0,7.0,12.0,79,0.00,,,0.00,,2013-02-28 09:52:00,
2013-02-28 04:01:00,31.0,25.0,-100.00,North,10,7.0,12.0,78,0.00,,,0.00,,2013-02-28 10:01:00,
2013-02-28 04:11:00,31.0,25.0,-100.00,NNE,15,4.0,15.0,77,0.00,,,0.00,,2013-02-28 10:11:00,
2013-02-28 04:21:00,31.0,25.0,-100.00,North,10,9.0,14.0,77,0.00,,,0.00,,2013-02-28 10:21:00,
2013-02-28 04:32:00,31.0,25.0,-100.00,North,5,6.0,13.0,77,0.00,,,0.00,,2013-02-28 10:32:00,
2013-02-28 04:42:00,31.0,25.0,-100.00,NNE,25,6.0,12.0,77,0.00,,,0.00,,2013-02-28 10:42:00,
2013-02-28 04:52:00,31.0,25.0,-100.00,North,0,7.0,13.0,77,0.00,,,0.00,,2013-02-28 10:52:00,
2013-02-28 05:01:00,31.0,25.0,-100.00,North,10,7.0,11.0,77,0.00,,,0.00,,2013-02-28 11:01:00,
2013-02-28 05:11:00,31.0,25.0,-100.00,North,355,7.0,14.0,76,0.00,,,0.00,,2013-02-28 11:11:00,
2013-02-28 05:21:00,31.0,25.0,-100.00,North,5,6.0,10.0,76,0.00,,,0.00,,2013-02-28 11:21:00,
2013-02-28 05:32:00,31.0,25.0,-100.00,North,0,3.0,8.0,77,0.00,,,0.00,,2013-02-28 11:32:00,
2013-02-28 05:42:00,31.0,25.0,-100.00,North,0,6.0,14.0,77,0.00,,,0.00,,2013-02-28 11:42:00,
2013-02-28 05:52:00,31.0,25.0,-100.00,NNE,20,6.0,14.0,77,0.00,,,0.00,,2013-02-28 11:52:00,
2013-02-28 06:01:00,31.0,25.0,-100.00,NNW,345,6.0,10.0,77,0.00,,,0.00,,2013-02-28 12:01:00,
2013-02-28 06:11:00,30.0,23.0,-100.00,North,10,9.0,16.0,76,0.00,,,0.00,,2013-02-28 12:11:00,
2013-02-28 06:21:00,30.0,23.0,-100.00,North,0,11.0,16.0,75,0.00,,,0.00,,2013-02-28 12:21:00,
2013-02-28 06:32:00,30.0,23.0,-100.00,North,5,9.0,18.0,74,0.00,,,0.00,,2013-02-28 12:32:00,
2013-02-28 06:42:00,30.0,23.0,-100.00,North,5,11.0,17.0,74,0.00,,,0.00,,2013-02-28 12:42:00,
2013-02-28 06:52:00,30.0,23.0,-100.00,North,0,8.0,16.0,74,0.00,,,0.00,,2013-02-28 12:52:00,
2013-02-28 07:01:00,30.0,23.0,-100.00,North,5,7.0,12.0,74,0.00,,,0.00,,2013-02-28 13:01:00,
2013-02-28 07:11:00,30.0,23.0,-100.00,North,0,7.0,15.0,74,0.00,,,0.00,,2013-02-28 13:11:00,
2013-02-28 07:21:00,30.0,23.0,-100.00,North,0,7.0,15.0,74,0.00,,,0.00,,2013-02-28 13:21:00,
2013-02-28 07:32:00,30.0,23.0,-100.00,NNE,20,11.0,17.0,74,0.00,,,0.00,,2013-02-28 13:32:00,
2013-02-28 07:42:00,30.0,23.0,-100.00,North,10,11.0,18.0,74,0.00,,,0.00,,2013-02-28 13:42:00,
2013-02-28 07:52:00,30.0,23.0,-100.00,North,0,11.0,20.0,75,0.00,,,0.00,,2013-02-28 13:52:00,
2013-02-28 08:01:00,29.0,23.0,-100.00,NNE,25,8.0,18.0,75,0.00,,,0.00,,2013-02-28 14:01:00,
2013-02-28 08:11:00,29.0,23.0,-100.00,North,5,4.0,15.0,76,0.00,,,0.00,,2013-02-28 14:11:00,
2013-02-28 08:21:00,29.0,23.0,-100.00,NNE,15,6.0,13.0,76,0.00,,,0.00,,2013-02-28 14:21:00,
2013-02-28 08:32:00,29.0,23.0,-100.00,NE,45,6.0,12.0,76,0.00,,,0.00,,2013-02-28 14:32:00,
2013-02-28 08:42:00,29.0,23.0,-100.00,NNE,25,6.0,16.0,76,0.00,,,0.00,,2013-02-28 14:42:00,
2013-02-28 08:52:00,29.0,23.0,-100.00,North,10,7.0,12.0,76,0.00,,,0.00,,2013-02-28 14:52:00,
2013-02-28 09:02:00,29.0,23.0,-100.00,North,10,6.0,12.0,76,0.00,,,0.00,,2013-02-28 15:02:00,
2013-02-28 09:11:00,29.0,23.0,-100.00,North,10,4.0,11.0,76,0.00,,,0.00,,2013-02-28 15:11:00,
2013-02-28 09:21:00,29.0,23.0,-100.00,North,10,4.0,11.0,76,0.00,,,0.00,,2013-02-28 15:21:00,
2013-02-28 09:32:00,29.0,23.0,-100.00,North,10,9.0,16.0,76,0.00,,,0.00,,2013-02-28 15:32:00,
2013-02-28 09:41:00,29.0,23.0,-100.00,NNE,20,9.0,16.0,76,0.00,,,0.00,,2013-02-28 15:41:00,
2013-02-28 09:52:00,29.0,23.0,-100.00,NNE,20,10.0,17.0,76,0.00,,,0.00,,2013-02-28 15:52:00,
2013-02-28 10:01:00,29.0,23.0,-100.00,North,10,7.0,15.0,77,0.00,,,0.00,,2013-02-28 16:01:00,
2013-02-28 10:11:00,29.0,23.0,-100.00,North,10,9.0,14.0,77,0.00,,,0.00,,2013-02-28 16:11:00,
2013-02-28 10:22:00,29.0,23.0,-100.00,North,10,7.0,13.0,78,0.00,,,0.00,,2013-02-28 16:22:00,
2013-02-28 10:32:00,29.0,23.0,-100.00,NE,35,7.0,15.0,78,0.00,,,0.00,,2013-02-28 16:32:00,
2013-02-28 10:42:00,29.0,23.0,-100.00,NNW,345,8.0,12.0,77,0.00,,,0.00,,2013-02-28 16:42:00,
2013-02-28 10:52:00,29.0,23.0,-100.00,North,355,9.0,14.0,76,0.00,,,0.00,,2013-02-28 16:52:00,
2013-02-28 11:01:00,29.0,23.0,-100.00,NNE,25,6.0,12.0,76,0.00,,,0.00,,2013-02-28 17:01:00,
2013-02-28 11:11:00,29.0,23.0,-100.00,North,0,6.0,12.0,76,0.00,,,0.00,,2013-02-28 17:11:00,
2013-02-28 11:21:00,29.0,23.0,-100.00,North,0,6.0,12.0,76,0.00,,,0.00,,2013-02-28 17:21:00,
2013-02-28 11:32:00,30.0,23.0,-100.00,NNE,15,7.0,14.0,76,0.00,,,0.00,,2013-02-28 17:32:00,
2013-02-28 11:42:00,30.0,23.0,-100.00,North,355,7.0,13.0,76,0.00,,,0.00,,2013-02-28 17:42:00,
2013-02-28 11:52:00,30.0,23.0,-100.00,NNE,20,6.0,12.0,76,0.00,,,0.00,,2013-02-28 17:52:00,
2013-02-28 12:02:00,30.0,23.0,-100.00,North,0,9.0,14.0,76,0.00,,,0.00,,2013-02-28 18:02:00,
2013-02-28 12:11:00,30.0,23.0,-100.00,NNW,335,8.0,17.0,76,0.00,,,0.00,,2013-02-28 18:11:00,
2013-02-28 12:22:00,30.0,23.0,-100.00,North,10,7.0,14.0,76,0.00,,,0.00,,2013-02-28 18:22:00,
2013-02-28 12:32:00,30.0,23.0,-100.00,North,350,6.0,13.0,76,0.00,,,0.00,,2013-02-28 18:32:00,
2013-02-28 12:42:00,30.0,23.0,-100.00,North,10,7.0,13.0,76,0.00,,,0.00,,2013-02-28 18:42:00,
2013-02-28 12:52:00,30.0,23.0,-100.00,North,5,7.0,12.0,76,0.00,,,0.00,,2013-02-28 18:52:00,
2013-02-28 13:01:00,30.0,23.0,-100.00,North,0,8.0,15.0,76,0.00,,,0.00,,2013-02-28 19:01:00,
2013-02-28 13:11:00,30.0,23.0,-100.00,NNW,340,9.0,15.0,77,0.00,,,0.00,,2013-02-28 19:11:00,
2013-02-28 13:21:00,30.0,25.0,-100.00,North,355,7.0,15.0,77,0.00,,,0.00,,2013-02-28 19:21:00,
2013-02-28 13:32:00,30.0,25.0,-100.00,North,355,8.0,14.0,77,0.00,,,0.00,,2013-02-28 19:32:00,
2013-02-28 13:41:00,30.0,25.0,-100.00,NNE,25,6.0,12.0,78,0.00,,,0.00,,2013-02-28 19:41:00,
2013-02-28 13:51:00,29.0,25.0,-100.00,North,10,7.0,13.0,80,0.00,,,0.00,,2013-02-28 19:51:00,
2013-02-28 14:01:00,30.0,25.0,-100.00,North,10,8.0,13.0,80,0.00,,,0.00,,2013-02-28 20:01:00,
2013-02-28 14:12:00,30.0,25.0,-100.00,North,350,9.0,16.0,79,0.00,,,0.00,,2013-02-28 20:12:00,
2013-02-28 14:21:00,30.0,25.0,-100.00,North,350,9.0,15.0,79,0.00,,,0.00,,2013-02-28 20:21:00,
2013-02-28 14:32:00,30.0,25.0,-100.00,NNE,15,7.0,15.0,78,0.00,,,0.00,,2013-02-28 20:32:00,
2013-02-28 14:42:00,30.0,25.0,-100.00,North,350,7.0,14.0,78,0.00,,,0.00,,2013-02-28 20:42:00,
2013-02-28 14:52:00,30.0,25.0,-100.00,NNE,15,7.0,12.0,77,0.00,,,0.00,,2013-02-28 20:52:00,
2013-02-28 15:01:00,30.0,23.0,-100.00,North,0,11.0,19.0,75,0.00,,,0.00,,2013-02-28 21:01:00,
2013-02-28 15:11:00,30.0,23.0,-100.00,North,355,9.0,19.0,74,0.00,,,0.00,,2013-02-28 21:11:00,
2013-02-28 15:22:00,30.0,23.0,-100.00,North,355,9.0,19.0,74,0.00,,,0.00,,2013-02-28 21:22:00,
2013-02-28 15:32:00,30.0,21.0,-100.00,NNE,25,7.0,14.0,71,0.00,,,0.00,,2013-02-28 21:32:00,
2013-02-28 15:41:00,30.0,23.0,-100.00,North,5,7.0,12.0,72,0.00,,,0.00,,2013-02-28 21:41:00,
2013-02-28 15:51:00,30.0,23.0,-100.00,NNE,25,6.0,14.0,73,0.00,,,0.00,,2013-02-28 21:51:00,
2013-02-28 16:01:00,30.0,23.0,-100.00,North,350,6.0,12.0,73,0.00,,,0.00,,2013-02-28 22:01:00,
2013-02-28 16:11:00,30.0,23.0,-100.00,North,0,9.0,15.0,72,0.00,,,0.00,,2013-02-28 22:11:00,
2013-02-28 16:21:00,30.0,21.0,-100.00,North,5,7.0,14.0,71,0.00,,,0.00,,2013-02-28 22:21:00,
2013-02-28 16:32:00,30.0,21.0,-100.00,NNE,25,4.0,16.0,71,0.00,,,0.00,,2013-02-28 22:32:00,
2013-02-28 16:41:00,30.0,21.0,-100.00,North,350,4.0,13.0,71,0.00,,,0.00,,2013-02-28 22:41:00,
2013-02-28 16:52:00,30.0,21.0,-100.00,North,5,6.0,14.0,71,0.00,,,0.00,,2013-02-28 22:52:00,
2013-02-28 17:01:00,29.0,21.0,-100.00,North,0,7.0,14.0,70,0.00,,,0.00,,2013-02-28 23:01:00,
2013-02-28 17:11:00,29.0,21.0,-100.00,North,5,6.0,15.0,70,0.00,,,0.00,,2013-02-28 23:11:00,
2013-02-28 17:22:00,29.0,21.0,-100.00,North,5,6.0,15.0,70,0.00,,,0.00,,2013-02-28 23:22:00,
2013-02-28 17:31:00,29.0,21.0,-100.00,North,0,5.0,14.0,70,0.00,,,0.00,,2013-02-28 23:31:00,
2013-02-28 17:41:00,29.0,21.0,-100.00,North,0,5.0,13.0,69,0.00,,,0.00,,2013-02-28 23:41:00,
2013-02-28 17:52:00,29.0,21.0,-100.00,North,10,6.0,10.0,70,0.00,,,0.00,,2013-02-28 23:52:00,
2013-02-28 18:01:00,29.0,21.0,-100.00,North,355,5.0,12.0,70,0.00,,,0.00,,2013-03-01 00:01:00,
2013-02-28 18:11:00,29.0,21.0,-100.00,North,350,7.0,13.0,69,0.00,,,0.00,,2013-03-01 00:11:00,
2013-02-28 18:22:00,29.0,21.0,-100.00,NNW,340,6.0,11.0,69,0.00,,,0.00,,2013-03-01 00:22:00,
2013-02-28 18:32:00,29.0,21.0,-100.00,North,350,8.0,11.0,69,0.00,,,0.00,,2013-03-01 00:32:00,
2013-02-28 18:41:00,29.0,21.0,-100.00,NNW,345,3.0,10.0,70,0.00,,,0.00,,2013-03-01 00:41:00,
2013-02-28 18:51:00,29.0,21.0,-100.00,North,10,4.0,8.0,71,0.00,,,0.00,,2013-03-01 00:51:00,
2013-02-28 19:01:00,29.0,21.0,-100.00,North,0,4.0,9.0,71,0.00,,,0.00,,2013-03-01 01:01:00,
2013-02-28 19:11:00,29.0,21.0,-100.00,North,5,4.0,9.0,71,0.00,,,0.00,,2013-03-01 01:11:00,
2013-02-28 19:21:00,29.0,21.0,-100.00,North,5,4.0,9.0,71,0.00,,,0.00,,2013-03-01 01:21:00,
2013-02-28 19:32:00,29.0,21.0,-100.00,North,5,4.0,7.0,72,0.00,,,0.00,,2013-03-01 01:32:00,
2013-02-28 19:42:00,29.0,21.0,-100.00,NNW,340,4.0,7.0,72,0.00,,,0.00,,2013-03-01 01:42:00,
2013-02-28 19:51:00,29.0,21.0,-100.00,North,350,4.0,9.0,73,0.00,,,0.00,,2013-03-01 01:51:00,
2013-02-28 20:01:00,29.0,21.0,-100.00,NNW,340,4.0,9.0,73,0.00,,,0.00,,2013-03-01 02:01:00,
2013-02-28 20:11:00,29.0,21.0,-100.00,NNW,340,4.0,7.0,73,0.00,,,0.00,,2013-03-01 02:11:00,
2013-02-28 20:21:00,29.0,21.0,-100.00,NNW,335,5.0,9.0,73,0.00,,,0.00,,2013-03-01 02:21:00,
2013-02-28 20:31:00,29.0,21.0,-100.00,North,0,4.0,9.0,74,0.00,,,0.00,,2013-03-01 02:31:00,
2013-02-28 20:42:00,28.0,21.0,-100.00,NE,50,6.0,12.0,74,0.00,,,0.00,,2013-03-01 02:42:00,
2013-02-28 20:52:00,28.0,21.0,-100.00,East,80,8.0,13.0,73,0.00,,,0.00,,2013-03-01 02:52:00,
2013-02-28 21:01:00,28.0,19.0,-100.00,NE,35,4.0,12.0,73,0.00,,,0.00,,2013-03-01 03:01:00,
2013-02-28 21:11:00,27.0,19.0,-100.00,NE,45,6.0,12.0,73,0.00,,,0.00,,2013-03-01 03:11:00,
2013-02-28 21:21:00,27.0,19.0,-100.00,NE,45,6.0,12.0,73,0.00,,,0.00,,2013-03-01 03:21:00,
2013-02-28 21:32:00,27.0,19.0,-100.00,NE,40,4.0,11.0,73,0.00,,,0.00,,2013-03-01 03:32:00,
2013-02-28 21:41:00,26.0,18.0,-100.00,ENE,65,6.0,12.0,73,0.00,,,0.00,,2013-03-01 03:41:00,
2013-02-28 21:51:00,26.0,18.0,-100.00,NE,55,6.0,13.0,73,0.00,,,0.00,,2013-03-01 03:51:00,
2013-02-28 22:01:00,25.0,18.0,-100.00,NNE,20,4.0,8.0,73,0.00,,,0.00,,2013-03-01 04:01:00,
2013-02-28 22:11:00,25.0,18.0,-100.00,North,5,4.0,11.0,73,0.00,,,0.00,,2013-03-01 04:11:00,
2013-02-28 22:21:00,25.0,18.0,-100.00,North,10,4.0,7.0,74,0.00,,,0.00,,2013-03-01 04:21:00,
2013-02-28 22:32:00,25.0,18.0,-100.00,NNE,15,6.0,11.0,74,0.00,,,0.00,,2013-03-01 04:32:00,
2013-02-28 22:42:00,25.0,18.0,-100.00,NE,40,6.0,8.0,74,0.00,,,0.00,,2013-03-01 04:42:00,
2013-02-28 22:51:00,25.0,18.0,-100.00,NNE,15,4.0,7.0,75,0.00,,,0.00,,2013-03-01 04:51:00,
2013-02-28 23:02:00,25.0,18.0,-100.00,North,10,4.0,11.0,75,0.00,,,0.00,,2013-03-01 05:02:00,
2013-02-28 23:11:00,25.0,18.0,-100.00,NE,40,6.0,11.0,76,0.00,,,0.00,,2013-03-01 05:11:00,
2013-02-28 23:22:00,25.0,18.0,-100.00,NE,40,6.0,11.0,76,0.00,,,0.00,,2013-03-01 05:22:00,
2013-02-28 23:32:00,25.0,18.0,-100.00,NNE,20,5.0,10.0,76,0.00,,,0.00,,2013-03-01 05:32:00,
2013-02-28 23:42:00,25.0,18.0,-100.00,ENE,70,6.0,11.0,76,0.00,,,0.00,,2013-03-01 05:42:00,
2013-02-28 23:52:00,25.0,18.0,-100.00,NE,50,6.0,11.0,76,0.00,,,0.00,,2013-03-01 05:52:00,